Stündliche Wetter Cedro

Heute, 27 Januar, Mittwoch

Zeit Temperatur Niederschläge Wind Luftdruck Luftfeuchtigkeit
00:00 +28°C° 0 mm 2 m/S 736 mmHg 56%
01:00 +27°C° 0.1 mm 1 m/S 736 mmHg 64%
02:00 +26°C° 0.1 mm 1 m/S 735 mmHg 72%
03:00 +23°C° 0.1 mm 0 m/S 735 mmHg 80%
04:00 +23°C° 0 mm 0 m/S 735 mmHg 80%
05:00 +25°C° 0 mm 1 m/S 736 mmHg 80%
06:00 +25°C° 0 mm 1 m/S 736 mmHg 80%
07:00 +27°C° 0 mm 1 m/S 736 mmHg 72%
08:00 +29°C° 0 mm 2 m/S 737 mmHg 64%
09:00 +30°C° 0 mm 2 m/S 737 mmHg 57%
10:00 +32°C° 0 mm 2 m/S 737 mmHg 50%
11:00 +35°C° 0 mm 2 m/S 736 mmHg 43%
12:00 +37°C° 0 mm 2 m/S 736 mmHg 36%
13:00 +37°C° 0 mm 2 m/S 735 mmHg 34%
14:00 +38°C° 0 mm 2 m/S 734 mmHg 32%
15:00 +38°C° 0 mm 2 m/S 733 mmHg 30%
16:00 +36°C° 0 mm 1 m/S 733 mmHg 33%
17:00 +34°C° 0 mm 1 m/S 733 mmHg 36%
18:00 +30°C° 0 mm 0 m/S 733 mmHg 40%
19:00 +30°C° 0 mm 0 m/S 734 mmHg 41%
20:00 +31°C° 0 mm 1 m/S 734 mmHg 43%
21:00 +31°C° 0 mm 1 m/S 735 mmHg 44%
22:00 +30°C° 0.2 mm 1 m/S 735 mmHg 54%
23:00 +28°C° 0.2 mm 1 m/S 735 mmHg 63%

Morgen, 28 Januar, Donnerstag

Zeit Temperatur Niederschläge Wind Luftdruck Luftfeuchtigkeit
00:00 +27°C° 0.2 mm 1 m/S 736 mmHg 72%
01:00 +26°C° 0.5 mm 1 m/S 735 mmHg 77%
02:00 +26°C° 0.5 mm 1 m/S 735 mmHg 82%
03:00 +25°C° 0.5 mm 2 m/S 735 mmHg 86%
04:00 +25°C° 0.3 mm 1 m/S 735 mmHg 87%
05:00 +25°C° 0.3 mm 1 m/S 735 mmHg 88%
06:00 +25°C° 0.3 mm 1 m/S 736 mmHg 88%
07:00 +25°C° 0.1 mm 1 m/S 736 mmHg 84%
08:00 +26°C° 0.1 mm 2 m/S 737 mmHg 80%
09:00 +27°C° 0.1 mm 2 m/S 737 mmHg 76%
10:00 +29°C° 0.1 mm 2 m/S 737 mmHg 65%
11:00 +32°C° 0.1 mm 1 m/S 736 mmHg 54%
12:00 +35°C° 0.1 mm 1 m/S 736 mmHg 43%
13:00 +35°C° 0 mm 1 m/S 735 mmHg 41%
14:00 +35°C° 0 mm 1 m/S 734 mmHg 39%
15:00 +37°C° 0 mm 2 m/S 734 mmHg 37%
16:00 +34°C° 0 mm 1 m/S 734 mmHg 41%
17:00 +33°C° 0 mm 1 m/S 734 mmHg 44%
18:00 +32°C° 0 mm 1 m/S 734 mmHg 48%
19:00 +31°C° 0.1 mm 1 m/S 734 mmHg 52%
20:00 +29°C° 0.1 mm 1 m/S 735 mmHg 56%
21:00 +28°C° 0.1 mm 1 m/S 735 mmHg 61%
22:00 +27°C° 0.5 mm 1 m/S 735 mmHg 68%
23:00 +26°C° 0.5 mm 1 m/S 735 mmHg 76%

übermorgen, 29 Januar, Freitag

Zeit Temperatur Niederschläge Wind Luftdruck Luftfeuchtigkeit
00:00 +25°C° 0.5 mm 1 m/S 736 mmHg 83%
01:00 +25°C° 0.8 mm 1 m/S 735 mmHg 86%
02:00 +25°C° 0.8 mm 1 m/S 735 mmHg 89%
03:00 +24°C° 0.8 mm 1 m/S 735 mmHg 92%
04:00 +22°C° 0.3 mm 0 m/S 735 mmHg 92%
05:00 +22°C° 0.3 mm 0 m/S 736 mmHg 91%
06:00 +22°C° 0.3 mm 0 m/S 736 mmHg 91%
07:00 +26°C° 0 mm 1 m/S 736 mmHg 81%
08:00 +28°C° 0 mm 2 m/S 737 mmHg 71%
09:00 +29°C° 0 mm 2 m/S 737 mmHg 61%
10:00 +31°C° 0 mm 2 m/S 737 mmHg 53%
11:00 +34°C° 0 mm 3 m/S 737 mmHg 45%
12:00 +37°C° 0 mm 3 m/S 736 mmHg 37%
13:00 +37°C° 0 mm 3 m/S 735 mmHg 36%
14:00 +37°C° 0 mm 2 m/S 735 mmHg 36%
15:00 +37°C° 0 mm 2 m/S 734 mmHg 36%
16:00 +35°C° 0 mm 2 m/S 734 mmHg 42%
17:00 +32°C° 0 mm 2 m/S 734 mmHg 48%
18:00 +30°C° 0 mm 1 m/S 734 mmHg 54%
19:00 +29°C° 0.2 mm 1 m/S 735 mmHg 60%
20:00 +28°C° 0.2 mm 1 m/S 735 mmHg 65%
21:00 +27°C° 0.2 mm 1 m/S 735 mmHg 71%
22:00 +27°C° 0.1 mm 1 m/S 735 mmHg 75%
23:00 +26°C° 0.1 mm 1 m/S 736 mmHg 79%

30 Januar, Samstag

Zeit Temperatur Niederschläge Wind Luftdruck Luftfeuchtigkeit
00:00 +26°C° 0.1 mm 1 m/S 736 mmHg 84%
01:00 +25°C° 0.4 mm 1 m/S 736 mmHg 87%
02:00 +25°C° 0.4 mm 1 m/S 735 mmHg 89%
03:00 +23°C° 0.4 mm 0 m/S 735 mmHg 92%
04:00 +25°C° 0.8 mm 1 m/S 736 mmHg 92%
05:00 +25°C° 0.8 mm 1 m/S 736 mmHg 92%
06:00 +25°C° 0.8 mm 1 m/S 736 mmHg 92%
07:00 +26°C° 0.5 mm 2 m/S 737 mmHg 85%
08:00 +27°C° 0.5 mm 2 m/S 737 mmHg 78%
09:00 +29°C° 0.5 mm 3 m/S 738 mmHg 71%
10:00 +30°C° 0.2 mm 3 m/S 737 mmHg 63%
11:00 +33°C° 0.2 mm 3 m/S 737 mmHg 54%
12:00 +35°C° 0.2 mm 3 m/S 737 mmHg 45%
13:00 +36°C° 0.1 mm 2 m/S 736 mmHg 44%
14:00 +36°C° 0.1 mm 2 m/S 735 mmHg 42%
15:00 +35°C° 0.1 mm 1 m/S 735 mmHg 41%
16:00 +33°C° 0 mm 1 m/S 735 mmHg 46%
17:00 +32°C° 0 mm 1 m/S 735 mmHg 51%
18:00 +30°C° 0 mm 1 m/S 734 mmHg 55%
19:00 +28°C° 0.4 mm 1 m/S 735 mmHg 63%
20:00 +27°C° 0.4 mm 1 m/S 735 mmHg 71%
21:00 +26°C° 0.4 mm 1 m/S 736 mmHg 79%
22:00 +25°C° 0.3 mm 1 m/S 736 mmHg 81%
23:00 +25°C° 0.3 mm 1 m/S 736 mmHg 83%

31 Januar, Sonntag

Zeit Temperatur Niederschläge Wind Luftdruck Luftfeuchtigkeit
00:00 +23°C° 0.3 mm 0 m/S 736 mmHg 85%
01:00 +23°C° 0.1 mm 0 m/S 736 mmHg 87%
02:00 +22°C° 0.1 mm 0 m/S 735 mmHg 89%
03:00 +22°C° 0.1 mm 0 m/S 735 mmHg 91%
04:00 +22°C° 0 mm 0 m/S 735 mmHg 91%
05:00 +22°C° 0 mm 0 m/S 736 mmHg 92%
06:00 +24°C° 0 mm 1 m/S 736 mmHg 92%
07:00 +26°C° 0 mm 1 m/S 737 mmHg 83%
08:00 +27°C° 0 mm 2 m/S 737 mmHg 74%
09:00 +29°C° 0 mm 2 m/S 737 mmHg 64%
10:00 +31°C° 0 mm 3 m/S 737 mmHg 57%
11:00 +34°C° 0 mm 3 m/S 736 mmHg 49%
12:00 +36°C° 0 mm 3 m/S 736 mmHg 41%
13:00 +36°C° 0 mm 3 m/S 735 mmHg 39%
14:00 +37°C° 0 mm 3 m/S 735 mmHg 36%
15:00 +38°C° 0 mm 3 m/S 734 mmHg 33%
16:00 +36°C° 0 mm 2 m/S 734 mmHg 38%
17:00 +34°C° 0 mm 2 m/S 734 mmHg 44%
18:00 +31°C° 0 mm 1 m/S 734 mmHg 50%
19:00 +30°C° 0 mm 1 m/S 734 mmHg 55%
20:00 +28°C° 0 mm 1 m/S 735 mmHg 61%
21:00 +27°C° 0 mm 1 m/S 735 mmHg 67%
22:00 +27°C° 0.2 mm 1 m/S 735 mmHg 71%
23:00 +26°C° 0.2 mm 1 m/S 735 mmHg 74%

1 Februar, Montag

Zeit Temperatur Niederschläge Wind Luftdruck Luftfeuchtigkeit
00:00 +24°C° 0.2 mm 0 m/S 736 mmHg 78%
01:00 +24°C° 0.4 mm 0 m/S 735 mmHg 80%
02:00 +23°C° 0.4 mm 0 m/S 735 mmHg 83%
03:00 +23°C° 0.4 mm 0 m/S 735 mmHg 86%
04:00 +23°C° 0 mm 0 m/S 735 mmHg 87%
05:00 +22°C° 0 mm 0 m/S 735 mmHg 88%
06:00 +22°C° 0 mm 0 m/S 736 mmHg 89%
07:00 +26°C° 0 mm 1 m/S 736 mmHg 80%
08:00 +28°C° 0 mm 2 m/S 737 mmHg 72%
09:00 +30°C° 0 mm 3 m/S 737 mmHg 63%
10:00 +31°C° 0 mm 3 m/S 737 mmHg 55%
11:00 +34°C° 0 mm 3 m/S 736 mmHg 47%
12:00 +36°C° 0 mm 3 m/S 736 mmHg 39%
13:00 +36°C° 0 mm 2 m/S 735 mmHg 37%
14:00 +37°C° 0 mm 2 m/S 734 mmHg 35%
15:00 +37°C° 0 mm 2 m/S 733 mmHg 32%
16:00 +35°C° 0 mm 2 m/S 733 mmHg 36%
17:00 +33°C° 0 mm 1 m/S 733 mmHg 39%
18:00 +31°C° 0 mm 1 m/S 733 mmHg 43%
19:00 +30°C° 0 mm 1 m/S 734 mmHg 47%
20:00 +29°C° 0 mm 1 m/S 735 mmHg 51%
21:00 +28°C° 0 mm 2 m/S 736 mmHg 55%
22:00 +27°C° 0.5 mm 1 m/S 736 mmHg 65%
23:00 +26°C° 0.5 mm 1 m/S 736 mmHg 75%
Mehr zeigen

Wir brauchen deine Erlaubnis

Meteoprog und unser Service Anbieter werden persönliche Daten aufbewahren, so wie Cookies, Geräte Bezeichnung oder ähnliche Technologien von deinem Gerät und Prozess, so wie Persönliche Daten Inhalte und Werbungen, genauso wie social Media und den Verkehr zu analysieren.

  • Aufbewahrung und/oder Zugang zu deiner Geräte Informationen.

    Cookies, Geräte Bezeichnung oder andere Informationen, können aufbewahrt oder Zugang zu deinem Gerät erhalten, für den Grund, der oben angegeben wird.

  • Personalisierte Werbung und Inhalte, Messungen, Einblick in das Publikum und Produkt Entwicklung.

    Werbungen und Inhalte können personalisiert werden, basierend auf ein Profil. Mehr Daten können besser personalisierte Werbungen und Inhalte hinzufügen. Werbung und Inhalte können gezeigt und gemessen werden. Einblicke über das Publikum, welche die Werbung gesehen haben und den Inhalt, können abgeleitet werden. So wie Daten können genutzt werden, um es zu verbessern oder die Benutzer Erfahrung zu verbessern das System und die Software.

Wenn du “Ich stimme zu” klickst, erlaubst du uns, die Cookies zu benutzen die Geräte Bezeichnung, den Web oder ähnliche Technologien zu benutzen. Deine Settings, können in deinem Gerät bei deinem Browser geändert werden.

Für den bestimmten Zweck, berechtigten Interessen beruhen darauf, mehr als auf den Inhalt. Du kannst mehr darüber in unseren Privaten und Cookie Politik lesen.